Regional Weather Roundup
Issued by NWS

Home | Current Version | Previous Version | Graphics & Text | Print | Product List | Glossary On
Versions: 1 2 3 4 5 6 7 8 9 10 11 12 13 14 15 16 17 18 19 20 21 22 23 24 25 26 27 28 29 30 31 32 33 34 35 36 37 38 39 40 41 42 43 44 45 46 47 48 49 50
000
ASUS43 KDMX 231701
RWRIA

WEATHER ROUNDUP FOR IOWA
NATIONAL WEATHER SERVICE DES MOINES IA
1100 AM CST TUE JAN 23 2018

NOTE: "FAIR" INDICATES FEW OR NO CLOUDS BELOW 12,000 FEET WITH NO
SIGNIFICANT WEATHER AND/OR OBSTRUCTIONS TO VISIBILITY.

* - THESE STATIONS ARE NOT NWS STATIONS...THUS NOT UNDER NWS
QUALITY CONTROL.  THEY ALSO DO NOT REPORT WEATHER SUCH
AS PRECIPITATION OR FOG.

IAZ001>003-012>014-020>022-031>034-043>046-231800-
   NORTHWEST IOWA

CITY           SKY/WX    TMP DP  RH WIND       PRES   REMARKS
CARROLL *      CLOUDY    25  21  86 NW14      30.13R WCI  13
CHEROKEE *     CLOUDY    23  20  87 NW9       30.15R WCI  13
DENISON *      CLOUDY    25  21  86 NW12      30.16R WCI  14
LE MARS *      CLOUDY    23  21  93 NW7       30.16R WCI  15
ORANGE CITY *  CLOUDY    23  21  93 NW10      30.13R WCI  12
SHELDON *      CLOUDY    21  19  93 NW8       30.11R WCI  12
SIOUX CITY     CLOUDY    21  19  92 NW14      30.18R WCI   8
SPENCER        CLOUDY    23  18  81 NW12      30.12R WCI  12
STORM LAKE *     N/A     23  19  86 N12       30.12R WCI  12
$$

IAZ055>058-069>071-079>083-090>094-231800-
   SOUTHWEST IOWA

CITY           SKY/WX    TMP DP  RH WIND       PRES   REMARKS
ATLANTIC *     CLOUDY    25  23  93 NW15      30.15R WCI  12
AUDUBON *      CLOUDY    25  19  80 NW10      30.13R WCI  15
CLARINDA *     CLOUDY    27  25  93 N13       30.19R WCI  16
COUNCIL BLFS * CLOUDY    23  23 100 NW9G16    30.17R WCI  13
CRESTON *      CLOUDY    25  23  93 NW13      30.14R WCI  13
HARLAN  *      CLOUDY    25  25 100 NW15      30.18R WCI  12
LAMONI         CLOUDY    28  21  75 NW17G25   30.12R WCI  16
RED OAK *      CLOUDY    27  23  86 NW13      30.17S WCI  16
SHENANDOAH *   CLOUDY    27  23  86 W9        30.20R WCI  17
$$

IAZ047>049-059>061-072>074-084-231800-
   CENTRAL IOWA

CITY           SKY/WX    TMP DP  RH WIND       PRES   REMARKS
AMES           CLOUDY    25  23  92 NW18      30.10R WCI  11
ANKENY *       CLOUDY    27  21  80 NW13G24   30.12R WCI  16
BOONE *        CLOUDY    25  19  80 NW17G23   30.09R WCI  11
CHARITON *     CLOUDY    27  23  86 NW21G26   30.09R WCI  13
DES MOINES     CLOUDY    27  21  78 NW16G25   30.11R WCI  15
GRINNELL*      CLOUDY    26  22  83 NW23      30.06R WCI  12
KNOXVILLE *    CLOUDY    27  21  80 NW17G24   30.08R WCI  14
MARSHALLTOWN   CLOUDY    26  20  77 NW22      30.06R WCI  12
NEWTON *       CLOUDY    27  23  86 NW21G26   30.08R WCI  13
PELLA *        CLOUDY    28  21  78 NW17G28   30.10R WCI  15
PERRY *        CLOUDY    27  23  85 NW16      30.12R WCI  14
$$

IAZ004>006-015-016-023>025-035-036-231800-
   NORTH CENTRAL IOWA

CITY           SKY/WX    TMP DP  RH WIND       PRES   REMARKS
CLARION *      CLOUDY    23  23 100 NW21G28   30.08R WCI   8
ESTHERVILLE      N/A     21  17  84 NW14      30.09R WCI   8
FORT DODGE *   CLOUDY    24  18  77 NW10      30.11R WCI  14
MASON CITY     CLOUDY    20  15  81 NW20      30.05R WCI   4
FOREST CITY *  CLOUDY    23  19  86 NW13      30.05R WCI  11
WEBSTER CITY * CLOUDY    25  19  80 NW20      30.08R WCI  11
IOWA FALLS *   CLOUDY    26  22  83 NW20      30.07R WCI  13
$$

IAZ007>011-017>019-026>030-037>042-050>054-066-231800-
   NORTHEAST IOWA

CITY           SKY/WX    TMP DP  RH WIND       PRES   REMARKS
CEDAR RAPIDS   CLOUDY    28  21  75 NW20G30   29.99R WCI  15
CHARLES CITY * CLOUDY    23  23 100 NW14G23   30.02R WCI  11
CLINTON *      CLOUDY    31  27  85 NW17      29.92R WCI  19
DECORAH *      CLOUDY    21  19  93 NW18      29.97R WCI   6
DUBUQUE        CLOUDY    27  23  85 NW15      29.91R WCI  15
MONTICELLO *   CLOUDY    27  23  86 NW17G25   29.96R WCI  14
OELWEIN *      CLOUDY    23  23 100 NW24      29.99R WCI   7
WATERLOO       CLOUDY    23  17  78 NW21G28   30.03R WCI   8
$$

IAZ064-065-067-068-078-231800-
   EAST CENTRAL IOWA

CITY           SKY/WX    TMP DP  RH WIND       PRES   REMARKS
DAVENPORT      CLOUDY    31  25  78 NW18      29.95R WCI  19
IOWA CITY      CLOUDY    30  20  66 NW18G28   30.02R WCI  18
MT. PLEASANT * CLOUDY    30  25  80 NW17G26   30.02R WCI  18
MUSCATINE *    CLOUDY    32  25  74 NW22G29   30.00R WCI  19
QUAD CITIES    CLOUDY    31  25  78 NW16G24   29.94R WCI  20
$$

IAZ062-063-075>077-085>089-095>099-231800-
   SOUTHEAST IOWA

CITY           SKY/WX    TMP DP  RH WIND       PRES   REMARKS
BURLINGTON     CLOUDY    31  24  75 NW15G24   30.00R WCI  20
FAIRFIELD *    CLOUDY    30  23  74 W20       30.03R WCI  18
FORT MADISON * CLOUDY    30  27  86 NW17G26   30.01R WCI  18
KEOKUK *       CLOUDY    32  27  80 NW13G23   30.02R WCI  22
OSKALOOSA *    CLOUDY    29  24  81 NW25G31   30.06R WCI  14
OTTUMWA        CLOUDY    29  21  72 NW25G31   30.06R WCI  14
WASHINGTON *   CLOUDY    30  25  80 NW28G33   30.03R WCI  16
$$

ABBREVIATIONS USED IN REMARKS
   TC - TEMPERATURES IN CELSIUS
  WCI - WIND CHILL INDEX
   HX - HEAT INDEX
  VSB - VISIBILITY
$$




USA.gov is the U.S. government's official web portal to all federal, state and local government web resources and services.